Humidity-temperature Sensor

Selected Measurement Type: Relative Humidity

 
Relative Humidity [%]     6 entries per hour
Showing data from 4/26/2015 (00:00:00 Z) to 4/25/2015 (00:01:00 Z)
Previous Next [ Day | 3-Days | 7-Days ]
First Last
Prev [ Day | 3-Days | 7-Days ] Next
First Last

Start Time:     :
End Time:     :     
Time (in GMT) :00 :50 :40 :30 :20 :10
Previous Next [ Day | 3-Days | 7-Days ]
First Last
Prev [ Day | 3-Days | 7-Days ] Next
First Last


123 => good data
MM => data is determined as missing
-- => data not received/configured
Back to Top Back to Top
4/26/2015 00:00 to 23:10 78.02 77.16 75.90 76.54 76.44 76.68
4/25/2015 23:00 to 22:10 76.07 77.22 77.01 76.64 76.66 77.47
4/25/2015 22:00 to 21:10 77.82 76.99 76.31 75.67 74.77 75.92
4/25/2015 21:00 to 20:10 75.38 75.59 75.22 74.79 74.81 73.98
4/25/2015 20:00 to 19:10 76.42 75.24 75.84 75.76 75.12 74.48
4/25/2015 19:00 to 18:10 74.37 74.13 74.60 75.82 75.30 76.29
4/25/2015 18:00 to 17:10 76.70 78.66 74.93 73.36 74.99 76.50
4/25/2015 17:00 to 16:10 79.26 80.56 78.29 79.41 78.77 77.12
4/25/2015 16:00 to 15:10 77.67 79.10 78.97 79.14 78.27 76.68
4/25/2015 15:00 to 14:10 76.93 78.07 77.45 77.96 78.97 80.09
4/25/2015 14:00 to 13:10 80.85 80.81 80.93 80.77 81.92 83.94
4/25/2015 13:00 to 12:10 85.90 84.25 79.88 80.48 80.97 82.54
4/25/2015 12:00 to 11:10 85.35 85.06 83.82 83.80 80.11 83.06
4/25/2015 11:00 to 10:10 83.45 84.19 84.01 83.78 83.43 82.07
4/25/2015 10:00 to 9:10 81.70 82.71 82.93 82.56 77.24 78.79
4/25/2015 09:00 to 8:10 78.95 78.50 79.10 78.87 78.17 78.58
4/25/2015 08:00 to 7:10 80.33 84.17 83.99 83.90 82.89 81.37
4/25/2015 07:00 to 6:10 80.89 80.09 80.36 81.55 81.90 84.85
4/25/2015 06:00 to 5:10 86.83 82.11 81.39 80.44 80.95 82.17
4/25/2015 05:00 to 4:10 82.60 83.96 83.61 83.47 83.06 83.30
4/25/2015 04:00 to 3:10 82.75 82.36 83.08 83.12 83.86 82.44
4/25/2015 03:00 to 2:10 82.52 82.77 82.71 84.01 84.27 82.05
4/25/2015 02:00 to 1:10 81.10 80.36 81.98 82.40 81.84 82.27
4/25/2015 01:00 to 0:10 83.02 82.03 82.34 82.67 83.24 82.97